Weather History for Emporia, VA

Change the Weather History Date:

Monday, December 31, 2012

  Actual Average Record
Temperature  
Mean Temperature 34 °F -  
Max Temperature 46 °F 48 °F 75 °F (1984)
Min Temperature 21 °F 29 °F 11 °F (1983)
Degree Days  
Heating Degree Days 32    
Moisture  
Dew Point 26 °F    
Average Humidity 71    
Maximum Humidity 100    
Minimum Humidity 43    
Precipitation  
Precipitation 0.00 in - - ()
Sea Level Pressure  
Sea Level Pressure 30.27 in    
Wind  
Wind Speed 1 mph (South)    
Max Wind Speed 8 mph    
Max Gust Speed -    
Visibility 10 miles    
Events      
Averages and records for this station are not official NWS values.
T = Trace of Precipitation, MM = Missing Value Source: NWS Daily Summary

Daily Weather History Graph

Daily Weather History Graph

Search for Another Location

Airport:

Trip Planner

Search our weather history database for the weather conditions in past years. The results will help you decide how hot, cold, wet, or windy it might be!

Date:

Astronomy

Dec. 31, 2012 Rise Set
Actual Time 7:22 AM EST 5:04 PM EST
Civil Twilight 6:53 AM EST 5:33 PM EST
Nautical Twilight 6:21 AM EST 6:05 PM EST
Astronomical Twilight 5:49 AM EST 6:36 PM EST
Moon 8:27 PM EST (12/31) 9:07 AM EST (12/31)
Length of Visible Light 10h 39m
Length of Day
9h 42m
Waning Gibbous, 90% of the Moon is Illuminated
Dec 31
Waning Gibbous
Jan 4
Last Quarter
Jan 11
New
Jan 18
First Quarter
Jan 26
Full

Hourly Weather History & Observations

Time (EST) Temp. Windchill Dew Point Humidity Pressure Visibility Wind Dir Wind Speed Gust Speed Precip Events Conditions
12:15 AM 32.0 °F - 21.2 °F 64% 30.37 in 10.0 mi Calm Calm - N/A   Clear
12:35 AM 30.2 °F - 19.4 °F 64% 30.36 in 10.0 mi Calm Calm - N/A   Clear
12:55 AM 26.6 °F - 21.2 °F 80% 30.36 in 10.0 mi Calm Calm - N/A   Clear
1:15 AM 26.6 °F - 21.2 °F 80% 30.36 in 10.0 mi Calm Calm - N/A   Clear
1:35 AM 26.6 °F - 21.2 °F 80% 30.36 in 10.0 mi Calm Calm - N/A   Clear
1:55 AM 24.8 °F - 21.2 °F 86% 30.38 in 10.0 mi Calm Calm - N/A   Clear
2:15 AM 23.0 °F - 21.2 °F 93% 30.38 in 10.0 mi Calm Calm - N/A   Clear
2:35 AM 23.0 °F - 21.2 °F 93% 30.37 in 10.0 mi Calm Calm - N/A   Clear
2:55 AM 23.0 °F - 21.2 °F 93% 30.37 in 10.0 mi Calm Calm - N/A   Clear
3:15 AM 23.0 °F - 21.2 °F 93% 30.37 in 10.0 mi Calm Calm - N/A   Clear
3:35 AM 23.0 °F - 21.2 °F 93% 30.36 in 10.0 mi Calm Calm - N/A   Clear
3:55 AM 23.0 °F - 21.2 °F 93% 30.36 in 10.0 mi Calm Calm - N/A   Clear
4:15 AM 23.0 °F - 21.2 °F 93% 30.35 in 10.0 mi Calm Calm - N/A   Clear
4:35 AM 21.2 °F - 19.4 °F 93% 30.36 in 10.0 mi Calm Calm - N/A   Clear
4:55 AM 23.0 °F - 21.2 °F 93% 30.36 in 10.0 mi Calm Calm - N/A   Clear
5:15 AM 23.0 °F - 21.2 °F 93% 30.36 in 10.0 mi Calm Calm - N/A   Clear
5:35 AM 23.0 °F - 21.2 °F 93% 30.36 in 10.0 mi Calm Calm - N/A   Clear
5:55 AM 21.2 °F - 21.2 °F 100% 30.36 in 10.0 mi Calm Calm - N/A   Clear
6:15 AM 23.0 °F - 23.0 °F 100% 30.36 in 10.0 mi Calm Calm - N/A   Clear
6:35 AM 23.0 °F - 23.0 °F 100% 30.35 in 10.0 mi Calm Calm - N/A   Clear
6:55 AM 24.8 °F - 23.0 °F 93% 30.35 in 10.0 mi Calm Calm - N/A   Clear
7:15 AM 23.0 °F - 21.2 °F 93% 30.36 in 10.0 mi Calm Calm - N/A   Clear
7:35 AM 24.8 °F - 23.0 °F 93% 30.35 in 10.0 mi Calm Calm - N/A   Clear
7:55 AM 26.6 °F - 24.8 °F 93% 30.34 in 10.0 mi Calm Calm - N/A   Clear
8:15 AM 26.6 °F - 26.6 °F 100% 30.35 in 10.0 mi Calm Calm - N/A   Clear
8:35 AM 28.4 °F - 26.6 °F 93% 30.35 in 10.0 mi Calm Calm - N/A   Clear
8:55 AM 28.4 °F - 26.6 °F 93% 30.38 in 10.0 mi Calm Calm - N/A   Clear
9:15 AM 30.2 °F - 26.6 °F 86% 30.36 in - Calm Calm - N/A   Unknown
9:35 AM 32.0 °F - 26.6 °F 80% 30.36 in 10.0 mi Calm Calm - N/A   Clear
9:55 AM 32.0 °F - 28.4 °F 87% 30.36 in 10.0 mi Calm Calm - N/A   Clear
10:15 AM 33.8 °F 28.6 °F 26.6 °F 75% 30.37 in 10.0 mi SSW 5.8 mph - N/A   Clear
10:35 AM 35.6 °F 29.2 °F 26.6 °F 70% 30.36 in 10.0 mi South 8.1 mph - N/A   Clear
10:55 AM 35.6 °F 30.7 °F 26.6 °F 70% 30.34 in 10.0 mi South 5.8 mph - N/A   Clear
11:15 AM 39.2 °F 34.2 °F 24.8 °F 56% 30.32 in 10.0 mi SSE 6.9 mph - N/A   Clear
11:35 AM 41.0 °F 36.4 °F 23.0 °F 49% 30.30 in 10.0 mi SSE 6.9 mph - N/A   Clear
11:55 AM 41.0 °F 37.1 °F 23.0 °F 49% 30.28 in 10.0 mi South 5.8 mph - N/A   Clear
12:15 PM 41.0 °F 38.0 °F 24.8 °F 53% 30.27 in 10.0 mi South 4.6 mph - N/A   Clear
12:35 PM 41.0 °F 36.4 °F 23.0 °F 49% 30.26 in 10.0 mi SSW 6.9 mph - N/A   Clear
12:55 PM 42.8 °F 38.6 °F 24.8 °F 49% 30.25 in 10.0 mi South 6.9 mph - N/A   Clear
1:15 PM 42.8 °F 39.3 °F 26.6 °F 53% 30.22 in 10.0 mi South 5.8 mph - N/A   Clear
1:35 PM 42.8 °F 40.1 °F 26.6 °F 53% 30.21 in 10.0 mi SSE 4.6 mph - N/A   Clear
1:55 PM 42.8 °F - 26.6 °F 53% 30.21 in 10.0 mi Calm Calm - N/A   Clear
2:15 PM 42.8 °F 41.1 °F 28.4 °F 57% 30.20 in 10.0 mi ESE 3.5 mph - N/A   Clear
2:35 PM 44.6 °F 43.1 °F 28.4 °F 53% 30.19 in 10.0 mi South 3.5 mph - N/A   Clear
2:55 PM 44.6 °F 42.2 °F 26.6 °F 49% 30.20 in 10.0 mi South 4.6 mph - N/A   Clear
3:15 PM 44.6 °F 42.2 °F 26.6 °F 49% 30.18 in 10.0 mi South 4.6 mph - N/A   Clear
3:35 PM 46.4 °F 44.3 °F 26.6 °F 46% 30.19 in 10.0 mi South 4.6 mph - N/A   Clear
3:55 PM 46.4 °F 42.9 °F 24.8 °F 43% 30.20 in 10.0 mi South 6.9 mph - N/A   Clear
4:15 PM 46.4 °F 45.2 °F 26.6 °F 46% 30.19 in 10.0 mi SSW 3.5 mph - N/A   Clear
4:35 PM 46.4 °F - 26.6 °F 46% 30.19 in - Calm Calm - N/A   Clear
4:55 PM 44.6 °F - 26.6 °F 49% 30.17 in 10.0 mi Calm Calm - N/A   Clear
5:15 PM 42.8 °F - 28.4 °F 57% 30.18 in 10.0 mi Calm Calm - N/A   Clear
5:35 PM 42.8 °F - 30.2 °F 61% 30.18 in 10.0 mi Calm Calm - N/A   Clear
6:15 PM 42.8 °F 40.1 °F 30.2 °F 61% 30.16 in 10.0 mi SSE 4.6 mph - N/A   Overcast
6:35 PM 44.6 °F - 28.4 °F 53% 30.17 in 10.0 mi Calm Calm - N/A   Overcast
7:15 PM 42.8 °F - 32.0 °F 66% 30.17 in - Calm Calm - N/A   Overcast
7:35 PM 41.0 °F - 32.0 °F 70% 30.17 in 10.0 mi Calm Calm - N/A   Mostly Cloudy
7:55 PM 41.0 °F - 32.0 °F 70% 30.17 in 10.0 mi Calm Calm - N/A   Mostly Cloudy
8:15 PM 42.8 °F - 30.2 °F 61% 30.15 in 10.0 mi Calm Calm - N/A   Mostly Cloudy
8:35 PM 42.8 °F 41.1 °F 28.4 °F 57% 30.13 in 10.0 mi SSE 3.5 mph - N/A   Overcast
8:55 PM 44.6 °F - 28.4 °F 53% 30.13 in 10.0 mi Calm Calm - N/A   Mostly Cloudy
9:15 PM 44.6 °F - 28.4 °F 53% 30.13 in 10.0 mi Calm Calm - N/A   Scattered Clouds
9:35 PM 42.8 °F - 30.2 °F 61% 30.13 in 10.0 mi Calm Calm - N/A   Clear
9:55 PM 41.0 °F - 32.0 °F 70% 30.12 in 10.0 mi Calm Calm - N/A   Scattered Clouds
10:15 PM 41.0 °F - 32.0 °F 70% 30.13 in - Calm Calm - N/A   Scattered Clouds
10:35 PM 42.8 °F - 32.0 °F 66% 30.13 in 10.0 mi Calm Calm - N/A   Clear
10:55 PM 42.8 °F - 30.2 °F 61% 30.13 in 10.0 mi Calm Calm - N/A   Clear
11:15 PM 44.6 °F - 30.2 °F 57% 30.12 in - Calm Calm - N/A   Clear
11:35 PM 42.8 °F - 30.2 °F 61% 30.12 in 10.0 mi Calm Calm - N/A   Clear
11:55 PM 44.6 °F 43.1 °F 30.2 °F 57% 30.10 in 10.0 mi SE 3.5 mph - N/A   Clear